Time,TemperatureF,DewpointF,PressureIn,WindDirection,WindDirectionDegrees,WindSpeedMPH,WindSpeedGustMPH,Humidity,HourlyPrecipIn,Conditions,Clouds,dailyrainin,SoftwareType,DateUTC
2013-02-08 00:04:00,30.5,20.8,30.10,SSE,150,0.0,0.0,67,0.00,RA,,0.00,WeatherDisplay:10.37,2013-02-08 07:04:00,
2013-02-08 00:09:00,30.7,20.7,30.10,SSE,150,0.0,0.0,66,0.00,RA,,0.00,WeatherDisplay:10.37,2013-02-08 07:09:00,
2013-02-08 00:15:00,30.7,20.7,30.10,SSE,150,0.0,0.0,66,0.00,CLR,,0.00,WeatherDisplay:10.37,2013-02-08 07:15:00,
2013-02-08 00:20:00,30.5,20.5,30.10,SSE,150,0.0,0.0,66,0.00,CLR,,0.00,WeatherDisplay:10.37,2013-02-08 07:20:00,
2013-02-08 00:25:00,30.3,20.3,30.10,SSE,150,0.0,0.0,66,0.00,CLR,,0.00,WeatherDisplay:10.37,2013-02-08 07:25:00,
2013-02-08 00:30:00,30.5,20.1,30.10,SSE,150,0.0,0.0,65,0.00,CLR,,0.00,WeatherDisplay:10.37,2013-02-08 07:30:00,
2013-02-08 00:35:00,31.1,20.3,30.10,SSE,150,0.0,0.0,64,0.00,CLR,,0.00,WeatherDisplay:10.37,2013-02-08 07:35:00,
2013-02-08 00:40:00,32.0,20.4,30.09,SW,214,0.0,0.0,62,0.00,CLR,,0.00,WeatherDisplay:10.37,2013-02-08 07:40:00,
2013-02-08 00:45:00,32.6,20.2,30.09,SW,221,0.0,0.0,60,0.00,CLR,,0.00,WeatherDisplay:10.37,2013-02-08 07:45:00,
2013-02-08 00:51:00,33.0,20.2,30.09,SW,221,0.0,0.0,59,0.00,CLR,,0.00,WeatherDisplay:10.37,2013-02-08 07:51:00,
2013-02-08 00:56:00,33.5,19.9,30.09,SW,217,3.5,3.5,57,0.00,CLR,,0.00,WeatherDisplay:10.37,2013-02-08 07:56:00,
2013-02-08 01:01:00,34.0,19.9,30.09,SW,215,0.0,0.0,56,0.00,CLR,,0.00,WeatherDisplay:10.37,2013-02-08 08:01:00,
2013-02-08 01:06:00,34.4,19.9,30.08,SW,230,3.5,3.5,55,0.00,CLR,,0.00,WeatherDisplay:10.37,2013-02-08 08:06:00,
2013-02-08 01:11:00,34.5,19.5,30.08,SE,140,4.6,4.6,54,0.00,CLR,,0.00,WeatherDisplay:10.37,2013-02-08 08:11:00,
2013-02-08 01:17:00,34.9,19.9,30.08,SSE,167,3.5,3.5,54,0.00,CLR,,0.00,WeatherDisplay:10.37,2013-02-08 08:17:00,
2013-02-08 01:22:00,34.9,20.4,30.08,South,190,0.0,0.0,55,0.00,CLR,,0.00,WeatherDisplay:10.37,2013-02-08 08:22:00,
2013-02-08 01:27:00,34.8,20.3,30.08,South,184,2.3,0.0,55,0.00,CLR,,0.00,WeatherDisplay:10.37,2013-02-08 08:27:00,
2013-02-08 01:32:00,34.7,20.2,30.08,South,173,0.0,0.0,55,0.00,CLR,,0.00,WeatherDisplay:10.37,2013-02-08 08:32:00,
2013-02-08 01:38:00,34.4,20.3,30.08,SE,137,2.3,2.3,56,0.00,CLR,,0.00,WeatherDisplay:10.37,2013-02-08 08:38:00,
2013-02-08 01:43:00,34.4,20.3,30.08,SE,138,3.5,3.5,56,0.00,CLR,,0.00,WeatherDisplay:10.37,2013-02-08 08:43:00,
2013-02-08 01:48:00,34.2,20.1,30.08,SE,139,3.0,3.0,56,0.00,CLR,,0.00,WeatherDisplay:10.37,2013-02-08 08:48:00,
2013-02-08 01:53:00,34.0,20.3,30.07,SE,141,2.3,0.0,57,0.00,CLR,,0.00,WeatherDisplay:10.37,2013-02-08 08:53:00,
2013-02-08 01:59:00,33.9,19.8,30.07,SE,143,1.1,0.0,56,0.00,CLR,,0.00,WeatherDisplay:10.37,2013-02-08 08:59:00,
2013-02-08 02:04:00,33.8,20.2,30.07,SE,128,0.0,0.0,57,0.00,CLR,,0.00,WeatherDisplay:10.37,2013-02-08 09:04:00,
2013-02-08 02:09:00,33.7,20.1,30.07,SE,124,0.0,0.0,57,0.00,CLR,,0.00,WeatherDisplay:10.37,2013-02-08 09:09:00,
2013-02-08 02:14:00,33.6,20.0,30.07,SSE,163,3.5,3.5,57,0.00,CLR,,0.00,WeatherDisplay:10.37,2013-02-08 09:14:00,
2013-02-08 02:20:00,33.4,19.8,30.06,SSE,161,0.0,0.0,57,0.00,CLR,,0.00,WeatherDisplay:10.37,2013-02-08 09:20:00,
2013-02-08 02:25:00,33.3,19.7,30.06,SSE,161,0.0,2.0,57,0.00,CLR,,0.00,WeatherDisplay:10.37,2013-02-08 09:25:00,
2013-02-08 02:30:00,33.0,19.8,30.06,SSE,159,0.0,0.0,58,0.00,CLR,,0.00,WeatherDisplay:10.37,2013-02-08 09:30:00,
2013-02-08 02:35:00,32.7,19.5,30.05,SSE,159,0.0,0.0,58,0.00,CLR,,0.00,WeatherDisplay:10.37,2013-02-08 09:35:00,
2013-02-08 02:40:00,32.4,19.3,30.05,SSE,159,0.0,0.0,58,0.00,CLR,,0.00,WeatherDisplay:10.37,2013-02-08 09:40:00,
2013-02-08 02:45:00,32.4,19.3,30.04,SSE,159,2.0,0.0,58,0.00,CLR,,0.00,WeatherDisplay:10.37,2013-02-08 09:45:00,
2013-02-08 02:51:00,32.7,18.7,30.04,SSE,159,0.0,0.0,56,0.00,CLR,,0.00,WeatherDisplay:10.37,2013-02-08 09:51:00,
2013-02-08 02:56:00,33.0,18.6,30.04,SSE,159,0.0,0.0,55,0.00,CLR,,0.00,WeatherDisplay:10.37,2013-02-08 09:56:00,
2013-02-08 03:01:00,33.2,18.3,30.03,SSE,161,0.0,0.0,54,0.00,CLR,,0.00,WeatherDisplay:10.37,2013-02-08 10:01:00,
2013-02-08 03:06:00,33.5,18.2,30.03,SSE,161,0.0,0.0,53,0.00,CLR,,0.00,WeatherDisplay:10.37,2013-02-08 10:06:00,
2013-02-08 03:11:00,33.7,18.4,30.03,SSE,161,0.0,0.0,53,0.00,CLR,,0.00,WeatherDisplay:10.37,2013-02-08 10:11:00,
2013-02-08 03:17:00,33.6,18.3,30.02,SSE,161,0.0,0.0,53,0.00,CLR,,0.00,WeatherDisplay:10.37,2013-02-08 10:17:00,
2013-02-08 03:22:00,33.5,18.2,30.02,SSE,161,0.0,0.0,53,0.00,CLR,,0.00,WeatherDisplay:10.37,2013-02-08 10:22:00,
2013-02-08 03:27:00,33.3,18.0,30.02,SSE,161,0.0,0.0,53,0.00,CLR,,0.00,WeatherDisplay:10.37,2013-02-08 10:27:00,
2013-02-08 03:32:00,32.9,18.1,30.01,SSE,161,0.0,0.0,54,0.00,CLR,,0.00,WeatherDisplay:10.37,2013-02-08 10:32:00,
2013-02-08 03:37:00,32.6,17.8,30.01,SSE,161,0.0,0.0,54,0.00,CLR,,0.00,WeatherDisplay:10.37,2013-02-08 10:37:00,
2013-02-08 03:43:00,32.1,17.7,30.02,SSE,161,0.0,0.0,55,0.00,CLR,,0.00,WeatherDisplay:10.37,2013-02-08 10:43:00,
2013-02-08 03:48:00,31.6,18.1,30.02,SSE,161,0.0,0.0,57,0.00,CLR,,0.00,WeatherDisplay:10.37,2013-02-08 10:48:00,
2013-02-08 03:53:00,31.0,17.9,30.02,SSE,161,0.0,0.0,58,0.00,CLR,,0.00,WeatherDisplay:10.37,2013-02-08 10:53:00,
2013-02-08 03:59:00,30.6,18.0,30.02,SSE,161,0.0,0.0,59,0.00,CLR,,0.00,WeatherDisplay:10.37,2013-02-08 10:59:00,
2013-02-08 04:04:00,30.1,17.9,30.03,SSE,161,0.0,0.0,60,0.00,CLR,,0.00,WeatherDisplay:10.37,2013-02-08 11:04:00,
2013-02-08 04:09:00,29.8,18.0,30.03,SSE,161,0.0,0.0,61,0.00,CLR,,0.00,WeatherDisplay:10.37,2013-02-08 11:09:00,
2013-02-08 04:14:00,29.6,18.2,30.03,SSE,161,0.0,0.0,62,0.00,CLR,,0.00,WeatherDisplay:10.37,2013-02-08 11:14:00,
2013-02-08 04:20:00,29.5,18.1,30.03,SSE,161,0.0,0.0,62,0.00,CLR,,0.00,WeatherDisplay:10.37,2013-02-08 11:20:00,
2013-02-08 04:25:00,29.3,17.9,30.02,SSE,161,0.0,0.0,62,0.00,CLR,,0.00,WeatherDisplay:10.37,2013-02-08 11:25:00,
2013-02-08 04:30:00,29.0,17.6,30.02,SSE,161,0.0,0.0,62,0.00,CLR,,0.00,WeatherDisplay:10.37,2013-02-08 11:30:00,
2013-02-08 04:35:00,28.8,17.8,30.03,SSE,161,0.0,0.0,63,0.00,CLR,,0.00,WeatherDisplay:10.37,2013-02-08 11:35:00,
2013-02-08 04:41:00,28.6,17.6,30.03,SSE,161,0.0,0.0,63,0.00,CLR,,0.00,WeatherDisplay:10.37,2013-02-08 11:41:00,
2013-02-08 04:46:00,28.4,17.8,30.03,SSE,161,0.0,0.0,64,0.00,CLR,,0.00,WeatherDisplay:10.37,2013-02-08 11:46:00,
2013-02-08 04:51:00,28.0,17.7,30.03,SSE,161,0.0,0.0,65,0.00,CLR,,0.00,WeatherDisplay:10.37,2013-02-08 11:51:00,
2013-02-08 04:56:00,27.8,17.9,30.03,SSE,161,0.0,0.0,66,0.00,CLR,,0.00,WeatherDisplay:10.37,2013-02-08 11:56:00,
2013-02-08 05:02:00,27.6,17.7,30.03,SSE,161,0.0,0.0,66,0.00,CLR,,0.00,WeatherDisplay:10.37,2013-02-08 12:02:00,
2013-02-08 05:07:00,27.4,17.5,30.03,SSE,161,0.0,0.0,66,0.00,CLR,,0.00,WeatherDisplay:10.37,2013-02-08 12:07:00,
2013-02-08 05:12:00,27.3,17.8,30.02,SSE,161,0.0,0.0,67,0.00,CLR,,0.00,WeatherDisplay:10.37,2013-02-08 12:12:00,
2013-02-08 05:17:00,27.2,17.7,30.02,SSE,161,0.0,0.0,67,0.00,CLR,,0.00,WeatherDisplay:10.37,2013-02-08 12:17:00,
2013-02-08 05:23:00,27.1,17.6,30.02,SSE,161,0.0,0.0,67,0.00,CLR,,0.00,WeatherDisplay:10.37,2013-02-08 12:23:00,
2013-02-08 05:28:00,27.0,17.5,30.02,SSE,161,0.0,0.0,67,0.00,CLR,,0.00,WeatherDisplay:10.37,2013-02-08 12:28:00,
2013-02-08 05:33:00,27.0,16.8,30.01,SSE,161,0.0,0.0,65,0.00,CLR,,0.00,WeatherDisplay:10.37,2013-02-08 12:33:00,
2013-02-08 05:38:00,27.9,15.8,30.00,SSE,161,0.0,0.0,60,0.00,CLR,,0.00,WeatherDisplay:10.37,2013-02-08 12:38:00,
2013-02-08 05:43:00,30.1,15.4,30.01,SSE,161,0.0,0.0,54,0.00,CLR,,0.00,WeatherDisplay:10.37,2013-02-08 12:43:00,
2013-02-08 05:48:00,32.2,16.1,30.01,SSE,162,0.0,0.0,51,0.00,CLR,,0.00,WeatherDisplay:10.37,2013-02-08 12:48:00,
2013-02-08 05:54:00,33.7,16.1,30.00,ESE,123,0.0,0.0,48,0.00,CLR,,0.00,WeatherDisplay:10.37,2013-02-08 12:54:00,
2013-02-08 05:59:00,34.5,16.3,30.00,SSE,151,2.3,0.0,47,0.00,CLR,,0.00,WeatherDisplay:10.37,2013-02-08 12:59:00,
2013-02-08 06:04:00,34.9,16.7,30.01,SSE,150,0.0,0.0,47,0.00,CLR,,0.00,WeatherDisplay:10.37,2013-02-08 13:04:00,
2013-02-08 06:09:00,34.9,16.7,30.01,WSW,238,0.0,0.0,47,0.00,CLR,,0.00,WeatherDisplay:10.37,2013-02-08 13:09:00,
2013-02-08 06:15:00,34.5,16.3,30.01,WSW,241,0.0,0.0,47,0.00,CLR,,0.00,WeatherDisplay:10.37,2013-02-08 13:15:00,
2013-02-08 06:20:00,33.6,16.4,30.01,WSW,242,0.0,0.0,49,0.00,CLR,,0.00,WeatherDisplay:10.37,2013-02-08 13:20:00,
2013-02-08 06:25:00,32.6,16.0,30.01,WSW,242,0.0,0.0,50,0.00,CLR,,0.00,WeatherDisplay:10.37,2013-02-08 13:25:00,
2013-02-08 06:30:00,32.5,16.4,30.01,WSW,242,0.0,0.0,51,0.00,CLR,,0.00,WeatherDisplay:10.37,2013-02-08 13:30:00,
2013-02-08 06:35:00,32.2,16.5,30.00,WSW,242,0.0,0.0,52,0.00,CLR,,0.00,WeatherDisplay:10.37,2013-02-08 13:35:00,
2013-02-08 06:40:00,32.0,16.3,30.01,WSW,242,0.0,0.0,52,0.00,CLR,,0.00,WeatherDisplay:10.37,2013-02-08 13:40:00,
2013-02-08 06:46:00,31.9,16.2,30.01,WSW,242,0.0,0.0,52,0.00,CLR,,0.00,WeatherDisplay:10.37,2013-02-08 13:46:00,
2013-02-08 06:51:00,31.1,15.9,30.01,WSW,241,0.0,0.0,53,0.00,CLR,,0.00,WeatherDisplay:10.37,2013-02-08 13:51:00,
2013-02-08 06:56:00,30.1,15.4,30.01,WSW,242,0.0,0.0,54,0.00,CLR,,0.00,WeatherDisplay:10.37,2013-02-08 13:56:00,
2013-02-08 07:01:00,29.2,15.4,30.01,WSW,241,0.0,0.0,56,0.00,CLR,,0.00,WeatherDisplay:10.37,2013-02-08 14:01:00,
2013-02-08 07:07:00,28.5,15.2,30.01,WSW,246,0.0,0.0,57,0.00,CLR,,0.00,WeatherDisplay:10.37,2013-02-08 14:07:00,
2013-02-08 07:12:00,27.9,15.0,30.02,WSW,246,0.0,0.0,58,0.00,CLR,,0.00,WeatherDisplay:10.37,2013-02-08 14:12:00,
2013-02-08 07:17:00,27.4,14.9,30.02,WSW,246,0.0,0.0,59,0.00,CLR,,0.00,WeatherDisplay:10.37,2013-02-08 14:17:00,
2013-02-08 07:22:00,26.9,14.9,30.01,WSW,246,0.0,0.0,60,0.00,CLR,,0.00,WeatherDisplay:10.37,2013-02-08 14:22:00,
2013-02-08 07:27:00,26.8,14.8,30.01,WSW,248,0.0,0.0,60,0.00,CLR,,0.00,WeatherDisplay:10.37,2013-02-08 14:27:00,
2013-02-08 07:32:00,26.8,15.1,30.01,WSW,248,0.0,0.0,61,0.00,CLR,,0.00,WeatherDisplay:10.37,2013-02-08 14:32:00,
2013-02-08 07:38:00,26.7,15.0,30.01,WSW,250,0.0,0.0,61,0.00,CLR,,0.00,WeatherDisplay:10.37,2013-02-08 14:38:00,
2013-02-08 07:43:00,26.7,15.4,30.02,WSW,250,0.0,0.0,62,0.00,CLR,,0.00,WeatherDisplay:10.37,2013-02-08 14:43:00,
2013-02-08 07:48:00,26.7,15.4,30.01,WSW,250,0.0,0.0,62,0.00,CLR,,0.00,WeatherDisplay:10.37,2013-02-08 14:48:00,
2013-02-08 07:53:00,26.6,15.3,30.02,WSW,251,0.0,0.0,62,0.00,CLR,,0.00,WeatherDisplay:10.37,2013-02-08 14:53:00,
2013-02-08 07:59:00,26.6,15.3,30.02,WSW,252,0.0,0.0,62,0.00,CLR,,0.00,WeatherDisplay:10.37,2013-02-08 14:59:00,
2013-02-08 08:04:00,26.7,15.4,30.02,WSW,257,0.0,0.0,62,0.00,CLR,,0.00,WeatherDisplay:10.37,2013-02-08 15:04:00,
2013-02-08 08:09:00,26.7,15.4,30.03,WSW,257,0.0,0.0,62,0.00,CLR,,0.00,WeatherDisplay:10.37,2013-02-08 15:09:00,
2013-02-08 08:14:00,26.7,15.4,30.02,WSW,257,0.0,0.0,62,0.00,CLR,,0.00,WeatherDisplay:10.37,2013-02-08 15:14:00,
2013-02-08 08:20:00,26.7,15.4,30.02,West,259,0.0,0.0,62,0.00,CLR,,0.00,WeatherDisplay:10.37,2013-02-08 15:20:00,
2013-02-08 08:25:00,26.8,15.5,30.02,West,259,0.0,0.0,62,0.00,CLR,,0.00,WeatherDisplay:10.37,2013-02-08 15:25:00,
2013-02-08 08:30:00,26.9,15.6,30.01,West,259,0.0,0.0,62,0.00,CLR,,0.00,WeatherDisplay:10.37,2013-02-08 15:30:00,
2013-02-08 08:35:00,27.1,16.2,30.01,West,260,0.0,0.0,63,0.00,CLR,,0.00,WeatherDisplay:10.37,2013-02-08 15:35:00,
2013-02-08 08:40:00,27.3,16.4,30.01,West,268,1.1,0.0,63,0.00,CLR,,0.00,WeatherDisplay:10.37,2013-02-08 15:40:00,
2013-02-08 08:45:00,27.4,16.8,30.01,WNW,288,0.0,0.0,64,0.00,CLR,,0.00,WeatherDisplay:10.37,2013-02-08 15:45:00,
2013-02-08 08:51:00,27.5,16.9,30.01,WNW,287,0.0,0.0,64,0.00,CLR,,0.00,WeatherDisplay:10.37,2013-02-08 15:51:00,
2013-02-08 08:56:00,27.7,17.1,30.01,WNW,287,0.0,0.0,64,0.00,CLR,,0.00,WeatherDisplay:10.37,2013-02-08 15:56:00,
2013-02-08 09:01:00,27.9,17.3,30.01,WNW,287,0.0,0.0,64,0.00,CLR,,0.00,WeatherDisplay:10.37,2013-02-08 16:01:00,
2013-02-08 09:06:00,28.1,17.1,30.01,WNW,288,0.0,0.0,63,0.00,CLR,,0.00,WeatherDisplay:10.37,2013-02-08 16:06:00,
2013-02-08 09:11:00,28.3,16.9,30.01,WNW,287,0.0,0.0,62,0.00,CLR,,0.00,WeatherDisplay:10.37,2013-02-08 16:11:00,
2013-02-08 09:17:00,28.6,17.2,30.01,WNW,287,0.0,0.0,62,0.00,CLR,,0.00,WeatherDisplay:10.37,2013-02-08 16:17:00,
2013-02-08 09:22:00,28.8,16.6,30.00,WNW,288,0.0,0.0,60,0.00,CLR,,0.00,WeatherDisplay:10.37,2013-02-08 16:22:00,
2013-02-08 09:27:00,29.1,16.9,30.00,WNW,288,0.0,0.0,60,0.00,CLR,,0.00,WeatherDisplay:10.37,2013-02-08 16:27:00,
2013-02-08 09:32:00,29.4,17.2,30.00,WNW,288,0.0,0.0,60,0.00,CLR,,0.00,WeatherDisplay:10.37,2013-02-08 16:32:00,
2013-02-08 09:38:00,29.7,17.1,30.00,WNW,287,0.0,0.0,59,0.00,CLR,,0.00,WeatherDisplay:10.37,2013-02-08 16:38:00,
2013-02-08 09:43:00,30.0,17.0,29.99,WNW,288,0.0,0.0,58,0.00,CLR,,0.00,WeatherDisplay:10.37,2013-02-08 16:43:00,
2013-02-08 09:48:00,30.3,17.3,30.00,WNW,288,0.0,0.0,58,0.00,CLR,,0.00,WeatherDisplay:10.37,2013-02-08 16:48:00,
2013-02-08 09:53:00,30.5,16.7,29.99,WNW,287,0.0,0.0,56,0.00,CLR,,0.00,WeatherDisplay:10.37,2013-02-08 16:53:00,
2013-02-08 09:58:00,30.7,16.4,29.99,WNW,287,0.0,0.0,55,0.00,CLR,,0.00,WeatherDisplay:10.37,2013-02-08 16:58:00,
2013-02-08 10:03:00,31.0,16.7,29.99,WNW,287,0.0,0.0,55,0.00,CLR,,0.00,WeatherDisplay:10.37,2013-02-08 17:03:00,
2013-02-08 10:09:00,31.4,17.1,29.99,WNW,288,0.0,0.0,55,0.00,CLR,,0.00,WeatherDisplay:10.37,2013-02-08 17:09:00,
2013-02-08 10:14:00,31.6,16.8,29.99,WNW,287,0.0,0.0,54,0.00,CLR,,0.00,WeatherDisplay:10.37,2013-02-08 17:14:00,
2013-02-08 10:19:00,31.9,17.1,29.99,WNW,287,0.0,0.0,54,0.00,CLR,,0.00,WeatherDisplay:10.37,2013-02-08 17:19:00,
2013-02-08 10:25:00,32.3,17.0,29.99,WNW,288,0.0,0.0,53,0.00,CLR,,0.00,WeatherDisplay:10.37,2013-02-08 17:25:00,
2013-02-08 10:30:00,32.6,17.3,29.99,WNW,287,0.0,0.0,53,0.00,CLR,,0.00,WeatherDisplay:10.37,2013-02-08 17:30:00,
2013-02-08 10:35:00,32.9,17.2,29.99,WNW,288,0.0,0.0,52,0.00,CLR,,0.00,WeatherDisplay:10.37,2013-02-08 17:35:00,
2013-02-08 10:40:00,33.1,17.4,29.98,WNW,288,0.0,0.0,52,0.00,CLR,,0.00,WeatherDisplay:10.37,2013-02-08 17:40:00,
2013-02-08 10:45:00,33.4,17.6,29.98,WNW,288,0.0,0.0,52,0.00,CLR,,0.00,WeatherDisplay:10.37,2013-02-08 17:45:00,
2013-02-08 10:50:00,33.8,18.0,29.98,WNW,288,0.0,0.0,52,0.00,CLR,,0.00,WeatherDisplay:10.37,2013-02-08 17:50:00,
2013-02-08 10:56:00,34.2,17.9,29.98,WNW,288,0.0,0.0,51,0.00,CLR,,0.00,WeatherDisplay:10.37,2013-02-08 17:56:00,
2013-02-08 11:01:00,34.4,17.7,29.98,WNW,288,0.0,0.0,50,0.00,CLR,,0.00,WeatherDisplay:10.37,2013-02-08 18:01:00,
2013-02-08 11:06:00,35.0,17.7,29.97,WNW,288,0.0,0.0,49,0.00,CLR,,0.00,WeatherDisplay:10.37,2013-02-08 18:06:00,
2013-02-08 11:11:00,35.2,17.9,29.97,WNW,288,0.0,0.0,49,0.00,CLR,,0.00,WeatherDisplay:10.37,2013-02-08 18:11:00,
2013-02-08 11:16:00,35.6,17.8,29.96,East,101,2.3,2.3,48,0.00,CLR,,0.00,WeatherDisplay:10.37,2013-02-08 18:16:00,
2013-02-08 11:21:00,35.9,18.1,29.96,East,101,0.0,0.0,48,0.00,CLR,,0.00,WeatherDisplay:10.37,2013-02-08 18:21:00,
2013-02-08 11:26:00,36.2,17.9,29.96,East,101,0.0,0.0,47,0.00,CLR,,0.00,WeatherDisplay:10.37,2013-02-08 18:26:00,
2013-02-08 11:32:00,36.8,18.4,29.96,East,101,2.3,2.3,47,0.00,CLR,,0.00,WeatherDisplay:10.37,2013-02-08 18:32:00,
2013-02-08 11:37:00,37.7,18.2,29.95,East,101,1.1,1.1,45,0.00,CLR,,0.00,WeatherDisplay:10.37,2013-02-08 18:37:00,
2013-02-08 11:42:00,38.5,19.0,29.95,East,101,0.0,0.1,45,0.00,CLR,,0.00,WeatherDisplay:10.37,2013-02-08 18:42:00,
2013-02-08 11:48:00,39.7,19.5,29.95,East,101,2.3,2.3,44,0.00,CLR,,0.00,WeatherDisplay:10.37,2013-02-08 18:48:00,
2013-02-08 11:53:00,40.6,19.3,29.94,East,97,2.0,2.0,42,0.00,CLR,,0.00,WeatherDisplay:10.37,2013-02-08 18:53:00,
2013-02-08 11:58:00,41.1,19.2,29.94,ENE,68,2.3,2.3,41,0.00,CLR,,0.00,WeatherDisplay:10.37,2013-02-08 18:58:00,
2013-02-08 12:04:00,41.4,18.9,29.94,ENE,71,2.3,2.3,40,0.00,CLR,,0.00,WeatherDisplay:10.37,2013-02-08 19:04:00,
2013-02-08 12:09:00,41.9,18.7,29.93,ENE,74,3.5,3.5,39,0.00,CLR,,0.00,WeatherDisplay:10.37,2013-02-08 19:09:00,
2013-02-08 12:14:00,42.1,18.9,29.93,ENE,78,3.5,3.5,39,0.00,CLR,,0.00,WeatherDisplay:10.37,2013-02-08 19:14:00,
2013-02-08 12:19:00,42.4,19.2,29.92,ENE,78,2.3,2.3,39,0.00,CLR,,0.00,WeatherDisplay:10.37,2013-02-08 19:19:00,
2013-02-08 12:24:00,42.7,19.4,29.92,ENE,78,1.1,1.1,39,0.00,CLR,,0.00,WeatherDisplay:10.37,2013-02-08 19:24:00,
2013-02-08 12:29:00,43.2,19.3,29.91,ENE,78,3.5,3.5,38,0.00,CLR,,0.00,WeatherDisplay:10.37,2013-02-08 19:29:00,
2013-02-08 12:35:00,43.7,19.1,29.91,ENE,78,1.0,2.0,37,0.00,CLR,,0.00,WeatherDisplay:10.37,2013-02-08 19:35:00,
2013-02-08 12:40:00,44.5,19.8,29.90,ENE,78,2.0,5.0,37,0.00,CLR,,0.00,WeatherDisplay:10.37,2013-02-08 19:40:00,
2013-02-08 12:45:00,45.0,19.6,29.89,ENE,78,2.0,5.0,36,0.00,CLR,,0.00,WeatherDisplay:10.37,2013-02-08 19:45:00,
2013-02-08 12:50:00,45.5,20.7,29.89,ENE,78,0.0,2.0,37,0.00,CLR,,0.00,WeatherDisplay:10.37,2013-02-08 19:50:00,
2013-02-08 12:55:00,46.3,20.8,29.88,ENE,78,2.3,2.3,36,0.00,CLR,,0.00,WeatherDisplay:10.37,2013-02-08 19:55:00,
2013-02-08 13:00:00,47.0,21.4,29.87,ENE,76,1.1,0.0,36,0.00,CLR,,0.00,WeatherDisplay:10.37,2013-02-08 20:00:00,
2013-02-08 13:05:00,47.6,21.3,29.87,ENE,73,3.5,3.5,35,0.00,CLR,,0.00,WeatherDisplay:10.37,2013-02-08 20:05:00,
2013-02-08 13:11:00,47.9,21.5,29.87,East,83,3.5,3.5,35,0.00,CLR,,0.00,WeatherDisplay:10.37,2013-02-08 20:11:00,
2013-02-08 13:16:00,48.1,22.4,29.86,East,80,1.1,0.0,36,0.00,CLR,,0.00,WeatherDisplay:10.37,2013-02-08 20:16:00,
2013-02-08 13:21:00,48.4,22.0,29.86,East,80,3.5,3.5,35,0.00,CLR,,0.00,WeatherDisplay:10.37,2013-02-08 20:21:00,
2013-02-08 13:26:00,48.5,22.1,29.85,ENE,78,2.3,2.3,35,0.00,CLR,,0.00,WeatherDisplay:10.37,2013-02-08 20:26:00,
2013-02-08 13:31:00,48.7,22.2,29.85,ENE,75,1.1,1.1,35,0.00,CLR,,0.00,WeatherDisplay:10.37,2013-02-08 20:31:00,
2013-02-08 13:37:00,49.0,21.8,29.84,NNW,344,1.1,1.1,34,0.00,CLR,,0.00,WeatherDisplay:10.37,2013-02-08 20:37:00,
2013-02-08 13:42:00,49.3,21.4,29.84,ENE,59,1.1,1.1,33,0.00,CLR,,0.00,WeatherDisplay:10.37,2013-02-08 20:42:00,
2013-02-08 13:47:00,49.6,21.6,29.83,ENE,62,3.0,3.0,33,0.00,CLR,,0.00,WeatherDisplay:10.37,2013-02-08 20:47:00,
2013-02-08 13:52:00,49.7,21.7,29.83,NNE,30,2.3,0.0,33,0.00,CLR,,0.00,WeatherDisplay:10.37,2013-02-08 20:52:00,
2013-02-08 13:58:00,49.8,21.1,29.83,NNE,28,1.1,1.1,32,0.00,CLR,,0.00,WeatherDisplay:10.37,2013-02-08 20:58:00,
2013-02-08 14:03:00,49.9,21.2,29.83,ENE,61,2.0,2.0,32,0.00,CLR,,0.00,WeatherDisplay:10.37,2013-02-08 21:03:00,
2013-02-08 14:08:00,50.3,20.8,29.83,ENE,72,1.1,1.2,31,0.00,CLR,,0.00,WeatherDisplay:10.37,2013-02-08 21:08:00,
2013-02-08 14:13:00,50.1,20.6,29.82,East,82,3.0,3.0,31,0.00,CLR,,0.00,WeatherDisplay:10.37,2013-02-08 21:13:00,
2013-02-08 14:19:00,49.9,21.2,29.82,NE,49,2.3,2.3,32,0.00,CLR,,0.00,WeatherDisplay:10.37,2013-02-08 21:19:00,
2013-02-08 14:24:00,50.2,20.7,29.81,NE,49,1.1,1.1,31,0.00,CLR,,0.00,WeatherDisplay:10.37,2013-02-08 21:24:00,
2013-02-08 14:29:00,50.5,20.9,29.81,North,5,3.5,3.5,31,0.00,CLR,,0.00,WeatherDisplay:10.37,2013-02-08 21:29:00,
2013-02-08 14:34:00,50.5,20.9,29.81,East,98,4.6,4.6,31,0.00,CLR,,0.00,WeatherDisplay:10.37,2013-02-08 21:34:00,
2013-02-08 14:40:00,50.6,20.3,29.81,East,84,0.0,3.0,30,0.00,CLR,,0.00,WeatherDisplay:10.37,2013-02-08 21:40:00,
2013-02-08 14:45:00,51.0,20.6,29.81,ENE,59,3.5,3.5,30,0.00,CLR,,0.00,WeatherDisplay:10.37,2013-02-08 21:45:00,
2013-02-08 14:50:00,50.9,20.5,29.81,East,86,3.5,3.5,30,0.00,CLR,,0.00,WeatherDisplay:10.37,2013-02-08 21:50:00,
2013-02-08 14:55:00,51.2,20.8,29.81,NE,49,2.3,2.3,30,0.00,CLR,,0.00,WeatherDisplay:10.37,2013-02-08 21:55:00,
2013-02-08 15:01:00,51.6,21.1,29.81,NNW,330,0.0,0.0,30,0.00,CLR,,0.00,WeatherDisplay:10.37,2013-02-08 22:01:00,
2013-02-08 15:06:00,51.8,20.5,29.80,WNW,300,3.5,3.5,29,0.00,CLR,,0.00,WeatherDisplay:10.37,2013-02-08 22:06:00,
2013-02-08 15:11:00,51.8,20.5,29.80,ENE,68,1.1,0.0,29,0.00,CLR,,0.00,WeatherDisplay:10.37,2013-02-08 22:11:00,
2013-02-08 15:16:00,51.8,20.5,29.80,ENE,65,2.0,2.0,29,0.00,CLR,,0.00,WeatherDisplay:10.37,2013-02-08 22:16:00,
2013-02-08 15:22:00,51.6,20.3,29.80,NNE,19,1.1,1.1,29,0.00,CLR,,0.00,WeatherDisplay:10.37,2013-02-08 22:22:00,
2013-02-08 15:27:00,51.4,20.2,29.80,North,360,0.0,0.2,29,0.00,CLR,,0.00,WeatherDisplay:10.37,2013-02-08 22:27:00,
2013-02-08 15:32:00,51.1,19.9,29.80,ENE,62,3.5,3.5,29,0.00,CLR,,0.00,WeatherDisplay:10.37,2013-02-08 22:32:00,
2013-02-08 15:38:00,50.9,19.7,29.80,ENE,60,2.3,2.3,29,0.00,CLR,,0.00,WeatherDisplay:10.37,2013-02-08 22:38:00,
2013-02-08 15:43:00,50.7,20.4,29.80,NNE,19,3.0,3.0,30,0.00,CLR,,0.00,WeatherDisplay:10.37,2013-02-08 22:43:00,
2013-02-08 15:48:00,50.6,20.3,29.79,NNE,13,1.1,0.0,30,0.00,CLR,,0.00,WeatherDisplay:10.37,2013-02-08 22:48:00,
2013-02-08 15:53:00,50.6,20.3,29.79,NNW,333,3.5,3.5,30,0.00,CLR,,0.00,WeatherDisplay:10.37,2013-02-08 22:53:00,
2013-02-08 15:59:00,50.5,20.2,29.79,ENE,67,4.6,4.6,30,0.00,CLR,,0.00,WeatherDisplay:10.37,2013-02-08 22:59:00,
2013-02-08 16:04:00,50.4,20.9,29.79,NNW,337,2.3,0.0,31,0.00,CLR,,0.00,WeatherDisplay:10.37,2013-02-08 23:04:00,
2013-02-08 16:09:00,50.3,20.8,29.79,NE,53,0.0,0.0,31,0.00,CLR,,0.00,WeatherDisplay:10.37,2013-02-08 23:09:00,
2013-02-08 16:14:00,50.5,20.9,29.79,NE,48,2.3,2.3,31,0.00,CLR,,0.00,WeatherDisplay:10.37,2013-02-08 23:14:00,
2013-02-08 16:19:00,50.2,19.9,29.79,ENE,58,3.5,3.5,30,0.00,CLR,,0.00,WeatherDisplay:10.37,2013-02-08 23:19:00,
2013-02-08 16:25:00,49.9,19.7,29.79,NNE,25,0.0,3.0,30,0.00,CLR,,0.00,WeatherDisplay:10.37,2013-02-08 23:25:00,
2013-02-08 16:30:00,49.4,20.0,29.78,ENE,73,0.0,0.0,31,0.00,CLR,,0.00,WeatherDisplay:10.37,2013-02-08 23:30:00,
2013-02-08 16:35:00,49.2,19.8,29.78,ENE,73,0.0,1.0,31,0.00,CLR,,0.00,WeatherDisplay:10.37,2013-02-08 23:35:00,
2013-02-08 16:40:00,48.8,20.2,29.78,ENE,72,0.0,1.0,32,0.00,CLR,,0.00,WeatherDisplay:10.37,2013-02-08 23:40:00,
2013-02-08 16:45:00,48.3,19.8,29.78,ENE,71,3.5,3.5,32,0.00,CLR,,0.00,WeatherDisplay:10.37,2013-02-08 23:45:00,
2013-02-08 16:50:00,47.9,20.1,29.78,ENE,72,0.0,3.0,33,0.00,CLR,,0.00,WeatherDisplay:10.37,2013-02-08 23:50:00,
2013-02-08 16:55:00,47.5,19.8,29.78,NNE,32,2.3,0.0,33,0.00,CLR,,0.00,WeatherDisplay:10.37,2013-02-08 23:55:00,
2013-02-08 17:00:00,47.1,20.1,29.79,ENE,75,2.3,0.0,34,0.00,CLR,,0.00,WeatherDisplay:10.37,2013-02-09 00:00:00,
2013-02-08 17:05:00,46.7,19.8,29.79,ENE,71,0.0,0.0,34,0.00,CLR,,0.00,WeatherDisplay:10.37,2013-02-09 00:05:00,
2013-02-08 17:10:00,46.3,20.1,29.78,NW,304,3.5,3.5,35,0.00,CLR,,0.00,WeatherDisplay:10.37,2013-02-09 00:10:00,
2013-02-08 17:16:00,46.0,19.8,29.79,NW,309,0.0,0.0,35,0.00,CLR,,0.00,WeatherDisplay:10.37,2013-02-09 00:16:00,
2013-02-08 17:21:00,45.6,20.1,29.79,NW,309,0.0,0.0,36,0.00,CLR,,0.00,WeatherDisplay:10.37,2013-02-09 00:21:00,
2013-02-08 17:26:00,45.2,20.4,29.79,NW,309,0.0,0.0,37,0.00,CLR,,0.00,WeatherDisplay:10.37,2013-02-09 00:26:00,
2013-02-08 17:31:00,44.9,20.2,29.78,NW,309,0.0,0.0,37,0.00,CLR,,0.00,WeatherDisplay:10.37,2013-02-09 00:31:00,
2013-02-08 17:37:00,44.3,20.3,29.79,NW,309,0.0,0.0,38,0.00,CLR,,0.00,WeatherDisplay:10.37,2013-02-09 00:37:00,
2013-02-08 17:42:00,43.9,20.5,29.78,NW,309,0.0,0.0,39,0.00,CLR,,0.00,WeatherDisplay:10.37,2013-02-09 00:42:00,
2013-02-08 17:47:00,43.4,20.1,29.79,NW,309,0.0,0.0,39,0.00,CLR,,0.00,WeatherDisplay:10.37,2013-02-09 00:47:00,
2013-02-08 17:52:00,43.0,20.3,29.79,NW,309,0.0,0.0,40,0.00,CLR,,0.00,WeatherDisplay:10.37,2013-02-09 00:52:00,
2013-02-08 17:58:00,42.6,19.9,29.79,NW,309,0.0,0.0,40,0.00,CLR,,0.00,WeatherDisplay:10.37,2013-02-09 00:58:00,
2013-02-08 18:03:00,42.2,19.6,29.79,NW,309,0.0,0.0,40,0.00,CLR,,0.00,WeatherDisplay:10.37,2013-02-09 01:03:00,
2013-02-08 18:08:00,41.8,19.8,29.79,NW,309,0.0,0.0,41,0.00,CLR,,0.00,WeatherDisplay:10.37,2013-02-09 01:08:00,
2013-02-08 18:13:00,41.3,19.3,29.79,NW,309,0.0,0.0,41,0.00,CLR,,0.00,WeatherDisplay:10.37,2013-02-09 01:13:00,
2013-02-08 18:19:00,40.8,19.5,29.79,NW,309,0.0,0.0,42,0.00,CLR,,0.00,WeatherDisplay:10.37,2013-02-09 01:19:00,
2013-02-08 18:24:00,40.2,19.5,29.79,NW,309,0.0,0.0,43,0.00,CLR,,0.00,WeatherDisplay:10.37,2013-02-09 01:24:00,
2013-02-08 18:29:00,39.7,19.5,29.79,NW,309,0.0,0.0,44,0.00,CLR,,0.00,WeatherDisplay:10.37,2013-02-09 01:29:00,
2013-02-08 18:34:00,39.3,19.2,29.79,NW,309,0.0,0.0,44,0.00,CLR,,0.00,WeatherDisplay:10.37,2013-02-09 01:34:00,
2013-02-08 18:40:00,38.9,19.3,29.79,NW,309,0.0,0.0,45,0.00,CLR,,0.00,WeatherDisplay:10.37,2013-02-09 01:40:00,
2013-02-08 18:45:00,38.5,19.4,29.79,NW,309,0.0,0.0,46,0.00,CLR,,0.00,WeatherDisplay:10.37,2013-02-09 01:45:00,
2013-02-08 18:50:00,38.0,19.0,29.79,NW,309,0.0,0.0,46,0.00,CLR,,0.00,WeatherDisplay:10.37,2013-02-09 01:50:00,
2013-02-08 18:55:00,37.5,19.1,29.79,NW,309,0.0,0.0,47,0.00,CLR,,0.00,WeatherDisplay:10.37,2013-02-09 01:55:00,
2013-02-08 19:00:00,37.1,19.2,29.80,NW,309,0.0,0.0,48,0.00,CLR,,0.00,WeatherDisplay:10.37,2013-02-09 02:00:00,
2013-02-08 19:05:00,36.8,18.9,29.80,NW,309,0.0,0.0,48,0.00,CLR,,0.00,WeatherDisplay:10.37,2013-02-09 02:05:00,
2013-02-08 19:10:00,36.4,19.5,29.80,NW,309,0.0,0.0,50,0.00,CLR,,0.00,WeatherDisplay:10.37,2013-02-09 02:10:00,
2013-02-08 19:16:00,36.1,19.2,29.79,NW,309,0.0,0.0,50,0.00,CLR,,0.00,WeatherDisplay:10.37,2013-02-09 02:16:00,
2013-02-08 19:21:00,35.8,19.0,29.79,NW,309,0.0,0.0,50,0.00,CLR,,0.00,WeatherDisplay:10.37,2013-02-09 02:21:00,
2013-02-08 19:26:00,35.4,19.5,29.79,NW,309,0.0,0.0,52,0.00,CLR,,0.00,WeatherDisplay:10.37,2013-02-09 02:26:00,
2013-02-08 19:31:00,35.0,19.1,29.79,NW,309,0.0,0.0,52,0.00,CLR,,0.00,WeatherDisplay:10.37,2013-02-09 02:31:00,
2013-02-08 19:37:00,34.7,18.9,29.79,NW,309,0.0,0.0,52,0.00,CLR,,0.00,WeatherDisplay:10.37,2013-02-09 02:37:00,
2013-02-08 19:42:00,34.4,19.0,29.80,NW,309,0.0,0.0,53,0.00,CLR,,0.00,WeatherDisplay:10.37,2013-02-09 02:42:00,
2013-02-08 19:47:00,34.3,19.4,29.80,NW,309,0.0,0.0,54,0.00,CLR,,0.00,WeatherDisplay:10.37,2013-02-09 02:47:00,
2013-02-08 19:52:00,34.0,19.5,29.80,NW,309,0.0,0.0,55,0.00,CLR,,0.00,WeatherDisplay:10.37,2013-02-09 02:52:00,
2013-02-08 19:57:00,33.8,19.3,29.80,NW,309,0.0,0.0,55,0.00,CLR,,0.00,WeatherDisplay:10.37,2013-02-09 02:57:00,
2013-02-08 20:03:00,33.6,19.6,29.80,NW,309,0.0,0.0,56,0.00,CLR,,0.00,WeatherDisplay:10.37,2013-02-09 03:03:00,
2013-02-08 20:08:00,33.4,19.4,29.80,NW,309,0.0,0.0,56,0.00,CLR,,0.00,WeatherDisplay:10.37,2013-02-09 03:08:00,
2013-02-08 20:13:00,33.1,19.5,29.80,NW,309,0.0,0.0,57,0.00,CLR,,0.00,WeatherDisplay:10.37,2013-02-09 03:13:00,
2013-02-08 20:19:00,32.9,19.3,29.80,NW,309,0.0,0.0,57,0.00,CLR,,0.00,WeatherDisplay:10.37,2013-02-09 03:19:00,
2013-02-08 20:24:00,32.6,19.4,29.80,NW,309,0.0,0.0,58,0.00,CLR,,0.00,WeatherDisplay:10.37,2013-02-09 03:24:00,
2013-02-08 20:29:00,32.4,19.3,29.80,NW,309,0.0,0.0,58,0.00,CLR,,0.00,WeatherDisplay:10.37,2013-02-09 03:29:00,
2013-02-08 20:35:00,32.2,19.1,29.80,NW,309,0.0,0.0,58,0.00,CLR,,0.00,WeatherDisplay:10.37,2013-02-09 03:35:00,
2013-02-08 20:40:00,32.1,19.4,29.80,NW,309,0.0,0.0,59,0.00,CLR,,0.00,WeatherDisplay:10.37,2013-02-09 03:40:00,
2013-02-08 20:45:00,31.9,19.2,29.80,NW,309,0.0,0.0,59,0.00,CLR,,0.00,WeatherDisplay:10.37,2013-02-09 03:45:00,
2013-02-08 20:50:00,31.8,19.1,29.79,NW,309,0.0,0.0,59,0.00,CLR,,0.00,WeatherDisplay:10.37,2013-02-09 03:50:00,
2013-02-08 20:55:00,31.5,18.8,29.79,NW,309,0.0,0.0,59,0.00,CLR,,0.00,WeatherDisplay:10.37,2013-02-09 03:55:00,
2013-02-08 21:00:00,31.4,19.1,29.79,NW,309,0.0,0.0,60,0.00,CLR,,0.00,WeatherDisplay:10.37,2013-02-09 04:00:00,
2013-02-08 21:05:00,31.3,19.0,29.80,NW,309,0.0,0.0,60,0.00,CLR,,0.00,WeatherDisplay:10.37,2013-02-09 04:05:00,
2013-02-08 21:11:00,31.2,18.9,29.80,NW,309,0.0,0.0,60,0.00,CLR,,0.00,WeatherDisplay:10.37,2013-02-09 04:11:00,
2013-02-08 21:16:00,31.1,19.2,29.79,NW,309,0.0,0.0,61,0.00,CLR,,0.00,WeatherDisplay:10.37,2013-02-09 04:16:00,
2013-02-08 21:21:00,31.0,19.1,29.79,NW,309,0.0,0.0,61,0.00,CLR,,0.00,WeatherDisplay:10.37,2013-02-09 04:21:00,
2013-02-08 21:26:00,30.9,19.4,29.79,NW,309,0.0,0.0,62,0.00,CLR,,0.00,WeatherDisplay:10.37,2013-02-09 04:26:00,
2013-02-08 21:32:00,31.0,19.5,29.79,NW,309,0.0,0.0,62,0.00,CLR,,0.00,WeatherDisplay:10.37,2013-02-09 04:32:00,
2013-02-08 21:37:00,31.1,19.6,29.79,NW,309,0.0,0.0,62,0.00,CLR,,0.00,WeatherDisplay:10.37,2013-02-09 04:37:00,
2013-02-08 21:42:00,31.1,19.6,29.78,NW,309,0.0,0.0,62,0.00,CLR,,0.00,WeatherDisplay:10.37,2013-02-09 04:42:00,
2013-02-08 21:47:00,31.1,19.6,29.78,NW,309,0.0,0.0,62,0.00,CLR,,0.00,WeatherDisplay:10.37,2013-02-09 04:47:00,
2013-02-08 21:52:00,31.1,20.0,29.78,NW,309,0.0,0.0,63,0.00,CLR,,0.00,WeatherDisplay:10.37,2013-02-09 04:52:00,
2013-02-08 21:58:00,31.2,20.1,29.78,NW,309,0.0,0.0,63,0.00,CLR,,0.00,WeatherDisplay:10.37,2013-02-09 04:58:00,
2013-02-08 22:00:00,31.2,20.1,29.78,NW,309,0.0,0.0,63,0.00,CLR,,0.00,WeatherDisplay:10.37,2013-02-09 05:00:00,
2013-02-08 22:01:00,31.2,20.1,29.78,NW,309,0.0,0.0,63,0.00,CLR,,0.00,WeatherDisplay:10.37,2013-02-09 05:01:00,
2013-02-08 22:07:00,31.3,20.2,29.78,NW,309,0.0,0.0,63,0.00,CLR,,0.00,WeatherDisplay:10.37,2013-02-09 05:07:00,
2013-02-08 22:12:00,31.3,20.5,29.78,NW,309,0.0,0.0,64,0.00,CLR,,0.00,WeatherDisplay:10.37,2013-02-09 05:12:00,
2013-02-08 22:17:00,31.3,20.5,29.79,NW,309,0.0,0.0,64,0.00,CLR,,0.00,WeatherDisplay:10.37,2013-02-09 05:17:00,
2013-02-08 22:22:00,31.4,20.6,29.79,NW,309,0.0,0.0,64,0.00,CLR,,0.00,WeatherDisplay:10.37,2013-02-09 05:22:00,
2013-02-08 22:27:00,31.4,20.2,29.78,NW,309,0.0,0.0,63,0.00,CLR,,0.00,WeatherDisplay:10.37,2013-02-09 05:27:00,
2013-02-08 22:33:00,31.1,20.3,29.78,NW,309,0.0,0.0,64,0.00,CLR,,0.00,WeatherDisplay:10.37,2013-02-09 05:33:00,
2013-02-08 22:38:00,30.9,20.1,29.78,NW,309,0.0,0.0,64,0.00,CLR,,0.00,WeatherDisplay:10.37,2013-02-09 05:38:00,
2013-02-08 22:43:00,30.8,20.4,29.78,NW,309,0.0,0.0,65,0.00,CLR,,0.00,WeatherDisplay:10.37,2013-02-09 05:43:00,
2013-02-08 22:48:00,30.7,20.3,29.78,NW,309,0.0,0.0,65,0.00,CLR,,0.00,WeatherDisplay:10.37,2013-02-09 05:48:00,
2013-02-08 22:53:00,30.7,20.7,29.78,NW,309,0.0,0.0,66,0.00,CLR,,0.00,WeatherDisplay:10.37,2013-02-09 05:53:00,
2013-02-08 22:59:00,30.9,20.9,29.77,NW,309,0.0,0.0,66,0.00,CLR,,0.00,WeatherDisplay:10.37,2013-02-09 05:59:00,
2013-02-08 23:04:00,31.0,21.0,29.77,NW,309,0.0,0.0,66,0.00,CLR,,0.00,WeatherDisplay:10.37,2013-02-09 06:04:00,
2013-02-08 23:09:00,30.9,20.9,29.77,NW,309,0.0,0.0,66,0.00,CLR,,0.00,WeatherDisplay:10.37,2013-02-09 06:09:00,
2013-02-08 23:14:00,30.8,20.8,29.77,NW,309,0.0,0.0,66,0.00,CLR,,0.00,WeatherDisplay:10.37,2013-02-09 06:14:00,
2013-02-08 23:20:00,30.7,20.7,29.77,NW,309,0.0,0.0,66,0.00,CLR,,0.00,WeatherDisplay:10.37,2013-02-09 06:20:00,
2013-02-08 23:25:00,30.6,20.6,29.77,NW,309,0.0,0.0,66,0.00,CLR,,0.00,WeatherDisplay:10.37,2013-02-09 06:25:00,
2013-02-08 23:30:00,30.4,20.4,29.76,NW,309,0.0,0.0,66,0.00,CLR,,0.00,WeatherDisplay:10.37,2013-02-09 06:30:00,
2013-02-08 23:35:00,30.2,20.2,29.76,NW,309,0.0,0.0,66,0.00,CLR,,0.00,WeatherDisplay:10.37,2013-02-09 06:35:00,
2013-02-08 23:41:00,30.0,20.4,29.76,NW,309,0.0,0.0,67,0.00,CLR,,0.00,WeatherDisplay:10.37,2013-02-09 06:41:00,
2013-02-08 23:46:00,29.8,20.2,29.76,NW,309,0.0,0.0,67,0.00,CLR,,0.00,WeatherDisplay:10.37,2013-02-09 06:46:00,
2013-02-08 23:51:00,29.6,20.3,29.76,NW,309,0.0,0.0,68,0.00,CLR,,0.00,WeatherDisplay:10.37,2013-02-09 06:51:00,
2013-02-08 23:56:00,29.5,20.2,29.76,NW,309,0.0,0.0,68,0.00,CLR,,0.00,WeatherDisplay:10.37,2013-02-09 06:56:00,